TimeCST,TemperatureF,Dew PointF,Humidity,Sea Level PressureIn,VisibilityMPH,Wind Direction,Wind SpeedMPH,Gust SpeedMPH,PrecipitationIn,Events,Conditions,WindDirDegrees,DateUTC
12:15 AM,23.0,14.0,68,30.34,10.0,ENE,8.1,-,N/A,,Clear,70,2012-12-05 06:15:00
12:35 AM,23.0,14.0,68,30.33,10.0,East,9.2,-,N/A,,Clear,80,2012-12-05 06:35:00
12:55 AM,23.0,14.0,68,30.32,10.0,East,8.1,-,N/A,,Clear,80,2012-12-05 06:55:00
1:15 AM,23.0,14.0,68,30.32,10.0,Calm,Calm,-,N/A,,Clear,0,2012-12-05 07:15:00
1:55 AM,23.0,14.0,68,30.29,10.0,East,8.1,-,N/A,,Clear,100,2012-12-05 07:55:00
2:15 AM,23.0,14.0,68,30.31,10.0,East,5.8,-,N/A,,Clear,100,2012-12-05 08:15:00
2:35 AM,23.0,14.0,68,30.31,10.0,ESE,5.8,-,N/A,,Clear,110,2012-12-05 08:35:00
2:55 AM,23.0,14.0,68,30.29,10.0,East,5.8,-,N/A,,Clear,100,2012-12-05 08:55:00
3:15 AM,23.0,14.0,68,30.30,10.0,SE,5.8,-,N/A,,Clear,130,2012-12-05 09:15:00
3:34 AM,23.0,14.0,68,30.29,10.0,ESE,6.9,-,N/A,,Clear,110,2012-12-05 09:34:00
3:55 AM,23.0,14.0,68,30.28,10.0,SE,6.9,-,N/A,,Clear,130,2012-12-05 09:55:00
4:15 AM,23.0,14.0,68,30.27,10.0,SE,6.9,-,N/A,,Clear,130,2012-12-05 10:15:00
4:34 AM,23.0,14.0,68,30.27,10.0,SE,6.9,-,N/A,,Clear,130,2012-12-05 10:34:00
4:55 AM,23.0,14.0,68,30.26,10.0,SE,10.4,-,N/A,,Clear,140,2012-12-05 10:55:00
5:15 AM,23.0,14.0,68,30.25,10.0,SE,8.1,-,N/A,,Clear,140,2012-12-05 11:15:00
5:35 AM,23.0,14.0,68,30.25,10.0,SE,10.4,-,N/A,,Clear,140,2012-12-05 11:35:00
5:55 AM,23.0,14.0,68,30.24,10.0,SE,10.4,-,N/A,,Clear,140,2012-12-05 11:55:00
6:15 AM,23.0,14.0,68,30.23,10.0,SE,10.4,-,N/A,,Clear,140,2012-12-05 12:15:00
6:35 AM,23.0,14.0,68,30.22,10.0,SE,10.4,-,N/A,,Clear,140,2012-12-05 12:35:00
6:55 AM,23.0,14.0,68,30.22,10.0,SE,9.2,-,N/A,,Clear,130,2012-12-05 12:55:00
8:34 AM,26.6,17.6,69,30.19,10.0,SSE,9.2,16.1,N/A,,Clear,150,2012-12-05 14:34:00
8:55 AM,26.6,17.6,69,30.17,10.0,SSE,12.7,-,N/A,,Clear,150,2012-12-05 14:55:00
9:15 AM,28.4,19.4,69,30.16,10.0,SSE,13.8,18.4,N/A,,Clear,150,2012-12-05 15:15:00
9:34 AM,30.2,19.4,64,30.15,10.0,SSE,15.0,19.6,N/A,,Clear,160,2012-12-05 15:34:00
9:55 AM,32.0,21.2,64,30.14,10.0,SSE,15.0,23.0,N/A,,Clear,160,2012-12-05 15:55:00
10:15 AM,32.0,21.2,64,30.12,10.0,SSE,20.7,26.5,N/A,,Clear,150,2012-12-05 16:15:00
10:35 AM,33.8,21.2,60,30.11,10.0,SSE,20.7,27.6,N/A,,Clear,160,2012-12-05 16:35:00
10:55 AM,35.6,23.0,60,30.10,10.0,SSE,23.0,31.1,N/A,,Clear,160,2012-12-05 16:55:00
11:15 AM,35.6,23.0,60,30.08,10.0,SSE,21.9,31.1,N/A,,Clear,160,2012-12-05 17:15:00
11:35 AM,37.4,23.0,56,30.07,10.0,SSE,23.0,29.9,N/A,,Clear,160,2012-12-05 17:35:00
11:55 AM,37.4,23.0,56,30.04,10.0,SSE,21.9,29.9,N/A,,Clear,160,2012-12-05 17:55:00
12:14 PM,41.0,23.0,49,30.02,10.0,SSE,21.9,31.1,N/A,,Clear,160,2012-12-05 18:14:00
12:35 PM,41.0,23.0,49,30.01,10.0,SSE,23.0,31.1,N/A,,Clear,160,2012-12-05 18:35:00
12:54 PM,41.0,24.8,53,29.99,10.0,SSE,16.1,25.3,N/A,,Clear,160,2012-12-05 18:54:00
1:15 PM,42.8,23.0,46,29.98,10.0,South,20.7,27.6,N/A,,Clear,170,2012-12-05 19:15:00
1:34 PM,44.6,23.0,43,29.96,10.0,SSE,18.4,26.5,N/A,,Clear,160,2012-12-05 19:34:00
1:55 PM,46.4,23.0,40,29.93,10.0,South,21.9,26.5,N/A,,Clear,170,2012-12-05 19:55:00
2:14 PM,48.2,23.0,37,29.91,10.0,SSE,20.7,31.1,N/A,,Clear,160,2012-12-05 20:14:00
2:35 PM,50.0,23.0,35,29.89,10.0,South,23.0,33.4,N/A,,Clear,170,2012-12-05 20:35:00
2:54 PM,50.0,23.0,35,29.89,10.0,South,19.6,31.1,N/A,,Clear,170,2012-12-05 20:54:00
3:15 PM,48.2,23.0,37,29.89,10.0,South,20.7,26.5,N/A,,Clear,170,2012-12-05 21:15:00
3:35 PM,48.2,23.0,37,29.88,10.0,South,13.8,21.9,N/A,,Clear,170,2012-12-05 21:35:00
3:54 PM,48.2,23.0,37,29.88,10.0,South,15.0,24.2,N/A,,Clear,170,2012-12-05 21:54:00
4:15 PM,48.2,23.0,37,29.88,10.0,South,11.5,18.4,N/A,,Scattered Clouds,170,2012-12-05 22:15:00
4:34 PM,46.4,23.0,40,29.87,10.0,SSE,11.5,18.4,N/A,,Mostly Cloudy,160,2012-12-05 22:34:00
4:55 PM,46.4,23.0,40,29.86,10.0,SSE,12.7,19.6,N/A,,Scattered Clouds,160,2012-12-05 22:55:00
5:15 PM,44.6,24.8,46,29.85,10.0,SSE,13.8,23.0,N/A,,Clear,160,2012-12-05 23:15:00
5:34 PM,44.6,24.8,46,29.84,10.0,SSE,15.0,19.6,N/A,,Clear,160,2012-12-05 23:34:00
5:55 PM,44.6,26.6,49,29.84,10.0,SSE,16.1,21.9,N/A,,Clear,160,2012-12-05 23:55:00
6:14 PM,44.6,26.6,49,29.84,10.0,South,15.0,20.7,N/A,,Clear,170,2012-12-06 00:14:00
6:35 PM,44.6,26.6,49,29.83,10.0,SSE,12.7,19.6,N/A,,Clear,160,2012-12-06 00:35:00
6:55 PM,44.6,26.6,49,29.83,10.0,South,15.0,20.7,N/A,,Clear,170,2012-12-06 00:55:00
7:14 PM,44.6,26.6,49,29.82,10.0,South,12.7,-,N/A,,Clear,170,2012-12-06 01:14:00
7:35 PM,46.4,26.6,46,29.80,10.0,South,18.4,23.0,N/A,,Clear,170,2012-12-06 01:35:00
7:55 PM,46.4,26.6,46,29.80,10.0,South,16.1,20.7,N/A,,Clear,170,2012-12-06 01:55:00
8:14 PM,46.4,26.6,46,29.79,10.0,South,17.3,-,N/A,,Clear,170,2012-12-06 02:14:00
8:35 PM,46.4,26.6,46,29.79,10.0,South,15.0,20.7,N/A,,Clear,170,2012-12-06 02:35:00
8:55 PM,46.4,26.6,46,29.78,10.0,South,16.1,-,N/A,,Clear,180,2012-12-06 02:55:00
9:14 PM,46.4,24.8,43,29.78,10.0,South,18.4,24.2,N/A,,Clear,180,2012-12-06 03:14:00
9:35 PM,48.2,23.0,37,29.78,10.0,South,18.4,25.3,N/A,,Clear,180,2012-12-06 03:35:00
9:55 PM,48.2,23.0,37,29.77,10.0,South,17.3,24.2,N/A,,Clear,180,2012-12-06 03:55:00
10:15 PM,48.2,23.0,37,29.76,10.0,South,17.3,-,N/A,,Clear,180,2012-12-06 04:15:00
10:35 PM,48.2,23.0,37,29.75,10.0,South,20.7,-,N/A,,Clear,190,2012-12-06 04:35:00
10:54 PM,50.0,23.0,35,29.75,10.0,South,24.2,29.9,N/A,,Clear,190,2012-12-06 04:54:00
11:15 PM,50.0,23.0,35,29.75,10.0,SSW,26.5,31.1,N/A,,Mostly Cloudy,200,2012-12-06 05:15:00
11:34 PM,50.0,21.2,32,29.75,10.0,SSW,24.2,32.2,N/A,,Overcast,200,2012-12-06 05:34:00
11:55 PM,50.0,21.2,32,29.75,10.0,SSW,23.0,31.1,N/A,,Overcast,200,2012-12-06 05:55:00